GW1560 Weather Reports


time (UTC)temp
C
wind
direction
speed
KPH
gust
KPH
rain 1hr
cm
rain 24hr
cm
rain mn
cm
humidity
%
barometer
mb
20260504081541 5 254 1.6 8.0 0.00 0.00 0.00 65 1008.9
20260504044539 7 239 0.0 4.8 0.00 0.00 0.00 62 1008.9
20260504043049 7 212 0.0 3.2 0.00 0.00 0.00 61 1009.0
20260504041541 7 0 0.0 3.2 0.00 0.00 0.00 61 1008.8
20260504040041 7 254 0.0 3.2 0.00 0.00 0.00 62 1009.0
20260504034534 7 292 0.0 3.2 0.00 0.00 0.00 58 1009.0
20260504033044 8 0 0.0 3.2 0.00 0.00 0.00 57 1009.0
20260504031544 8 0 0.0 6.4 0.00 0.00 0.00 58 1009.2
20260504030049 7 34 0.0 3.2 0.00 0.00 0.00 58 1009.1
20260504024546 8 221 0.0 3.2 0.00 0.00 0.00 57 1009.5
20260504023034 8 0 0.0 6.4 0.00 0.00 0.00 55 1009.6
20260504021547 8 13 3.2 9.7 0.00 0.00 0.00 55 1009.2
20260504020049 8 19 4.8 11.3 0.00 0.00 0.00 54 1009.4
20260504014542 8 13 3.2 6.4 0.00 0.00 0.00 54 1009.4
20260504013051 8 9 1.6 8.0 0.00 0.00 0.00 54 1009.2
20260504011538 8 51 1.6 8.0 0.00 0.00 0.00 54 1009.1
20260504010051 8 0 1.6 14.5 0.00 0.00 0.00 55 1008.9
20260504004540 8 248 0.0 3.2 0.00 0.00 0.00 56 1008.7
20260504003038 8 248 0.0 1.6 0.00 0.00 0.00 56 1008.6
20260504001540 8 0 0.0 3.2 0.00 0.00 0.00 55 1008.3
20260504000042 8 248 0.0 3.2 0.00 0.00 0.00 53 1008.3
20260503234543 9 144 0.0 4.8 0.00 0.00 0.00 52 1008.3
20260503233046 10 309 0.0 3.2 0.00 0.00 0.00 54 1008.3
20260503231541 10 266 1.6 8.0 0.00 0.00 0.00 51 1008.1
20260503230039 10 319 1.6 16.1 0.00 0.00 0.00 47 1008.1
20260503224538 11 292 3.2 12.9 0.00 0.00 0.00 45 1008.2
20260503223036 11 317 11.3 24.1 0.00 0.00 0.00 45 1008.3
20260503221537 11 335 6.4 20.9 0.00 0.00 0.00 47 1008.2
20260503220043 10 239 6.4 20.9 0.00 0.00 0.00 47 1008.7
20260503214541 10 44 6.4 25.7 0.00 0.00 0.00 47 1008.6
20260503213040 9 18 6.4 30.6 0.00 0.00 0.00 47 1008.5
20260503211549 10 330 6.4 24.1 0.00 0.00 0.00 44 1008.2
20260503210043 10 315 4.8 20.9 0.00 0.00 0.00 44 1007.9
20260503204542 10 221 8.0 25.7 0.00 0.00 0.00 41 1007.8
20260503203054 10 316 11.3 22.5 0.00 0.00 0.00 42 1008.0
20260503201542 10 51 4.8 32.2 0.00 0.00 0.00 41 1008.1
20260503200048 10 271 9.7 20.9 0.00 0.00 0.00 40 1008.0
20260503194542 10 11 6.4 20.9 0.00 0.00 0.00 40 1008.4
20260503193045 10 269 12.9 25.7 0.00 0.00 0.00 38 1008.5
20260503191540 10 275 8.0 33.8 0.00 0.00 0.00 39 1008.7
20260503190043 11 93 11.3 25.7 0.00 0.00 0.00 37 1008.7
20260503184541 10 23 11.3 25.7 0.00 0.00 0.00 37 1008.9
20260503183044 10 325 11.3 29.0 0.00 0.00 0.00 35 1009.2
20260503181543 10 31 8.0 29.0 0.00 0.00 0.00 41 1009.3
20260503180049 8 301 11.3 29.0 0.00 0.00 0.00 41 1009.5
20260503174544 9 64 12.9 30.6 0.00 0.00 0.00 38 1009.4
20260503173046 9 287 9.7 27.4 0.00 0.00 0.00 39 1009.7
20260503171542 8 282 9.7 27.4 0.00 0.00 0.00 41 1009.6